Regional Weather Roundup
Issued by NWS

Home | Current Version | Previous Version | Graphics & Text | Print | Product List | Glossary On
Versions: 1 2 3 4 5 6 7 8 9 10 11 12 13 14 15 16 17 18 19 20 21 22 23 24 25 26 27 28 29 30 31 32 33 34 35 36 37 38 39 40 41 42 43 44 45 46 47 48 49 50
000
ASUS43 KOAX 122110
RWRNE

WEATHER ROUNDUP FOR NEBRASKA
NATIONAL WEATHER SERVICE OMAHA NE
300 PM CST TUE DEC 12 2017

NOTES: SATELLITE DATA IS BEING USED TO AUGMENT CLOUD COVER ABOVE
       12000 FEET.
       "FAIR" INDICATES FEW OR NO CLOUDS BELOW 12,000 FEET WITH NO
       SIGNIFICANT WEATHER AND/OR OBSTRUCTIONS TO VISIBILITY.


NEZ001>004-019>022-054>056-122200-
NEBRASKA PANHANDLE

CITY           SKY/WX    TMP DP  RH WIND       PRES   REMARKS
SCOTTSBLUFF    SUNNY     65  16  15 W16G22    30.10F
ALLIANCE       SUNNY     65  17  15 NW16      30.06F
CHADRON        SUNNY     65  21  18 W12       30.02F
GORDON         FAIR      57  20  23 W12G17    30.03F
KIMBALL        SUNNY     65  16  15 NW21G29   30.14F
SIDNEY         SUNNY     65  15  14 NW21G29   30.12F
$$

NEZ057>060-069>072-079>082-122200-
SOUTHWEST NEBRASKA

CITY           SKY/WX    TMP DP  RH WIND       PRES   REMARKS
NORTH PLATTE   SUNNY     59  21  23 W9        30.07F
IMPERIAL       SUNNY     64  17  16 NW9       30.10F
LEXINGTON      SUNNY     54  20  26 W6        30.08F
MCCOOK         SUNNY     57  21  24 W10       30.10F
OGALLALA       SUNNY     63  17  16 W17       30.08F
$$

NEZ005>010-023>029-035>040-094-122200-
NORTH CENTRAL NEBRASKA

CITY           SKY/WX    TMP DP  RH WIND       PRES   REMARKS
VALENTINE      SUNNY     60  18  19 W15       29.99F
AINSWORTH      SUNNY     56  21  25 W10       30.00F
BROKEN BOW     SUNNY     54  16  22 SW10      30.05F
O`NEILL        SUNNY     52  20  29 SW10      30.00F
ORD            SUNNY     51  18  27 SW9       30.04F
THEDFORD       SUNNY     61  23  23 W13       30.03F
$$

NEZ041-046>049-061>064-073>077-083>087-122200-
SOUTH CENTRAL NEBRASKA

CITY           SKY/WX    TMP DP  RH WIND       PRES   REMARKS
GRAND ISLAND   SUNNY     52  21  29 W10       30.08F
AURORA         SUNNY     50  23  35 W10       30.08F
HASTINGS       SUNNY     51  20  29 W9G17     30.09F
HEBRON         SUNNY     50  25  37 W12       30.12F
HOLDREGE       SUNNY     49  24  37 W10       30.09F
KEARNEY        SUNNY     51  14  22 W8        30.08F
YORK           SUNNY     48  27  43 W9        30.09F
$$

NEZ011>018-030>034-042>045-122200-
NORTHEAST NEBRASKA

CITY           SKY/WX    TMP DP  RH WIND       PRES   REMARKS
NORFOLK        SUNNY     46  27  47 W14       30.02F
ALBION         SUNNY     50  24  36 W8        30.04F
BLAIR          SUNNY     41  28  59 S7        30.09F
COLUMBUS       SUNNY     47  27  45 MISG      30.07F
FREMONT        SUNNY     45  28  50 W8        30.09F
TEKAMAH        SUNNY     42  27  55 SW12      30.08F
WAYNE          SUNNY     46  24  41 W12       30.03F
$$

NEZ050>053-065>068-078-088>093-122200-
SOUTHEAST NEBRASKA

CITY           SKY/WX    TMP DP  RH WIND       PRES   REMARKS
LINCOLN        SUNNY     48  27  44 SW13      30.11F
OMAHA EPPLEY   MOSUNNY   39  24  55 S5        30.11F
BEATRICE       SUNNY     48  28  47 W9        30.12F
FALLS CITY     PTSUNNY   41  24  51 W10       30.15F
NEBRASKA CITY  SUNNY     42  29  59 SW9       30.13F
PLATTSMOUTH      N/A     42  28  58 SW10      30.11F
$$

NEZ044-045-051>053-067-122200-
OMAHA AREA

CITY           SKY/WX    TMP DP  RH WIND       PRES   REMARKS
OMAHA EPPLEY   MOSUNNY   39  24  55 S5        30.11F
BLAIR          SUNNY     41  28  59 S7        30.09F
FREMONT        SUNNY     45  28  50 W8        30.09F
MILLARD        SUNNY     42  28  58 S5        30.11F
OFFUTT AFB     SUNNY     42  26  53 SW5       30.11F
PLATTSMOUTH      N/A     42  28  58 SW10      30.11F
WAHOO          FAIR      47  26  45 W9G18     30.09F
$$




USA.gov is the U.S. government's official web portal to all federal, state and local government web resources and services.